#timestamp,LO_Frequency,Hit,StdDev 
1605553215.8,286046997.7,N
1605553235.6,286046996.6,N
1605553255.5,286046997.0,N
1605553275.3,286046996.9,N
1605553295.1,286046997.7,N
1605553315.9,286046997.1,N
1605553335.7,286046999.6,N
1605553355.6,286046999.6,N
1605553375.4,286046999.5,N
1605553395.2,286046999.3,N
1605553415.1,286046998.8,N
1605553416.0,286046998.8,N
1605553435.8,286046999.6,N
1605553455.6,286046999.6,N
1605553475.5,286046996.6,N
1605553495.3,286046999.5,N
1605553515.2,286046997.5,N
1605553535.9,286046998.9,N
1605553555.7,286047000.8,N
1605553575.6,286046998.9,N
1605553595.4,286046998.3,N
1605553615.2,286046998.4,N
1605553635.1,286046998.6,N
1605553636.0,286046998.6,N
1605553655.8,286046999.6,N
1605553675.7,286046999.0,N
1605553695.5,286047000.8,N
1605553715.3,286046998.2,N
1605553735.2,286047000.7,N
1605553755.0,286047000.8,N
1605553755.9,286047000.8,N
1605553775.7,286047000.0,N
1605553795.6,286047000.9,N
1605553815.4,286047000.1,N
1605553835.3,286047000.9,N
1605553855.1,286047000.3,N
1605553856.0,286047000.3,N
1605553875.8,286047000.6,N
1605553895.7,286047000.0,N
1605553915.5,286047002.0,N
1605553935.3,286046999.8,N
1605553955.2,286047000.5,N
1605553975.0,286047000.4,N
1605553975.9,286047000.4,N
1605553995.8,286047000.4,N
1605554015.6,286047000.7,N
1605554035.4,286047000.9,N
1605554055.3,286047000.5,N
1605554075.1,286046996.5,Y
1605554095.8,286046997.2,P
1605554115.7,286046999.3,N
1605554135.5,286046998.7,N
1605554155.4,286046997.1,N
1605554175.2,286046997.7,N
1605554195.0,286046997.4,N
1605554195.9,286046997.4,N
1605554215.8,286046997.4,N
1605554235.6,286046997.8,N
1605554255.5,286046994.9,Y
1605554275.3,286046998.7,P
1605554295.1,286047002.3,P
1605554315.9,286047000.8,N
1605554335.7,286047000.7,N
1605554355.5,286047000.6,N
1605554375.4,286047000.9,N
1605554395.2,286047001.1,N
1605554415.0,286047002.4,N
1605554416.0,286047002.4,N
1605554435.8,286047002.7,N
1605554455.6,286047002.1,N
1605554475.5,286047004.1,N
1605554495.3,286047003.2,N
1605554515.1,286047001.3,N
1605554535.9,286047005.3,Y
1605554585.8,286047006.0,E
1605554595.7,286047001.8,N
1605554615.5,286046998.6,P
1605554635.3,286047000.6,N
1605554655.2,286046998.1,N
1605554675.0,286046998.2,N
1605554675.9,286046998.2,N
1605554695.8,286047001.2,N
1605554715.6,286047000.8,N
1605554735.4,286046999.4,N
1605554755.3,286046998.7,N
1605554775.1,286046998.1,N
1605554795.8,286047001.2,N
1605554815.7,286047000.1,N
1605554835.5,286046999.4,N
1605554855.4,286046999.1,N
1605554875.2,286047000.7,N
1605554895.0,286046996.9,N
1605554895.9,286046996.9,N
1605554915.8,286047001.0,N
1605554935.6,286046998.5,N
1605554955.4,286046999.2,N
1605554975.3,286046998.1,N
1605554995.1,286047000.8,N
1605555015.9,286047001.0,N
1605555035.7,286046998.3,N
1605555055.5,286047001.0,N
1605555075.4,286047001.0,N
1605555095.2,286047000.5,N
1605555115.0,286046999.7,N
1605555115.9,286046999.7,N
1605555135.8,286047001.5,N
1605555155.6,286047002.0,N
1605555175.5,286047004.0,N
1605555195.3,286047004.0,N
1605555215.1,286047000.1,N
1605555235.9,286047002.2,N
1605555255.7,286047000.3,N
1605555275.6,286047002.4,N
1605555295.4,286047000.5,N
1605555315.2,286047000.3,N
1605555335.1,286047000.7,N
1605555336.0,286047000.7,N
1605555355.8,286047000.3,N
1605555375.6,286047000.2,N
1605555395.5,286047001.6,N
1605555415.3,286047001.3,N
1605555435.2,286047000.5,N
1605555455.9,286046998.4,N
1605555475.7,286046998.9,N
1605555495.6,286047001.2,N
1605555515.4,286046999.0,N
1605555535.2,286047002.4,N
1605555555.1,286047002.6,N
1605555556.0,286047002.6,N
1605555575.8,286046998.4,N
1605555595.7,286047000.3,N
1605555615.5,286047000.4,N
1605555635.3,286046998.4,N
1605555655.2,286047000.2,N
1605555675.0,286047002.8,N
1605555675.9,286047002.8,N
1605555695.7,286047000.6,N
1605555715.6,286046998.6,N
1605555735.4,286046998.9,N
1605555755.3,286046999.4,N
1605555775.1,286046997.7,N
1605555776.0,286046997.7,N
1605555795.8,286046997.8,N
1605555815.7,286046996.6,N
1605555835.5,286046999.6,N
1605555855.3,286046996.6,N
1605555875.2,286046997.8,N
1605555895.0,286046994.9,N
1605555895.9,286046994.9,N
1605555915.8,286046995.5,N
1605555935.6,286046996.1,N
1605555955.4,286046996.2,N
1605555975.3,286046997.5,N
1605555995.1,286046997.7,N
1605556015.9,286046999.2,N
1605556035.7,286046997.7,N
1605556055.5,286046997.0,N
1605556075.4,286046996.7,N
1605556095.2,286046997.8,N
1605556115.0,286046995.4,N
1605556115.9,286046995.4,N
1605556135.8,286046993.3,Y
1605556155.6,286046997.1,P
1605556175.5,286046999.6,N
1605556195.3,286046997.3,N
1605556215.1,286046997.6,N
1605556235.9,286046998.0,N
1605556255.7,286046995.0,Y
1605556275.5,286046998.8,P
1605556295.4,286046996.7,P
1605556315.2,286046998.4,N
1605556335.1,286047001.2,N
1605556336.0,286047001.2,N
1605556355.8,286046998.1,N
1605556375.6,286047000.7,N
1605556395.5,286047001.2,N
1605556415.3,286046998.3,N
1605556435.1,286047000.5,N
1605556455.9,286046998.2,N
1605556475.7,286046998.4,N
1605556495.6,286046998.3,N
1605556515.4,286047000.8,N
1605556535.2,286046998.5,N
1605556555.1,286046998.6,N
1605556556.0,286046998.6,N
1605556575.8,286047000.3,N
1605556595.6,286046999.6,N
1605556615.5,286047001.2,N
1605556635.3,286046998.7,N
1605556655.2,286046998.3,N
1605556675.9,286047000.3,N
1605556695.7,286047001.0,N
1605556715.6,286047000.9,N
1605556735.4,286047000.8,N
1605556755.2,286047001.0,N
1605556775.1,286047000.7,N
1605556776.0,286047000.7,N
1605556795.8,286047000.4,N
